TimeMDT,TemperatureF,Dew PointF,Humidity,Sea Level PressureIn,VisibilityMPH,Wind Direction,Wind SpeedMPH,Gust SpeedMPH,PrecipitationIn,Events,Conditions,WindDirDegrees,DateUTC
12:53 AM,43.0,30.0,60,29.92,10.0,SSW,10.4,-,N/A,,Clear,210,2012-10-08 06:53:00
1:53 AM,45.0,30.9,58,29.93,10.0,SW,9.2,-,N/A,,Overcast,220,2012-10-08 07:53:00
2:53 AM,45.0,30.9,58,29.94,10.0,WSW,4.6,-,N/A,,Mostly Cloudy,250,2012-10-08 08:53:00
3:53 AM,45.0,32.0,60,29.94,10.0,WNW,6.9,-,N/A,,Overcast,290,2012-10-08 09:53:00
4:53 AM,46.9,33.1,59,29.94,10.0,NW,9.2,-,0.00,Rain,Light Rain,320,2012-10-08 10:53:00
5:53 AM,45.0,39.0,80,29.98,10.0,North,8.1,-,0.00,Rain,Light Rain,10,2012-10-08 11:53:00
6:53 AM,45.0,41.0,86,30.01,10.0,NNE,8.1,-,0.02,Rain,Light Rain,30,2012-10-08 12:53:00
7:10 AM,44.6,42.8,93,29.98,10.0,NNE,8.1,-,0.00,Rain,Light Rain,30,2012-10-08 13:10:00
7:42 AM,44.6,42.8,93,29.99,10.0,NNE,3.5,-,0.00,Rain,Light Rain,20,2012-10-08 13:42:00
7:53 AM,45.0,42.1,90,30.03,9.0,NE,4.6,-,0.00,Rain,Light Rain,40,2012-10-08 13:53:00
8:39 AM,44.6,42.8,93,30.00,5.0,Calm,Calm,-,0.02,Rain,Light Rain,0,2012-10-08 14:39:00
8:53 AM,45.0,42.1,90,30.04,5.0,North,3.5,-,0.03,Rain,Light Rain,10,2012-10-08 14:53:00
9:08 AM,44.6,42.8,93,30.00,6.0,Calm,Calm,-,0.00,Rain,Light Rain,0,2012-10-08 15:08:00
9:28 AM,44.6,42.8,93,30.00,4.0,Calm,Calm,-,0.01,Rain,Light Rain,0,2012-10-08 15:28:00
9:53 AM,45.0,41.0,86,30.06,5.0,NNW,3.5,-,0.03,Rain,Light Rain,340,2012-10-08 15:53:00
10:28 AM,44.6,41.0,87,30.00,7.0,Calm,Calm,-,0.01,Rain,Light Rain,0,2012-10-08 16:28:00
10:53 AM,45.0,41.0,86,30.04,6.0,Calm,Calm,-,0.03,Rain,Light Rain,0,2012-10-08 16:53:00
11:30 AM,44.6,41.0,87,29.99,9.0,Calm,Calm,-,0.01,Rain,Light Rain,0,2012-10-08 17:30:00
11:53 AM,45.0,41.0,86,30.03,9.0,Calm,Calm,-,0.02,Rain,Light Rain,0,2012-10-08 17:53:00
12:04 PM,44.6,41.0,87,29.99,6.0,Calm,Calm,-,0.00,Rain,Light Rain,0,2012-10-08 18:04:00
12:22 PM,44.6,42.8,93,29.99,7.0,Variable,4.6,-,0.00,Rain,Light Rain,0,2012-10-08 18:22:00
12:35 PM,44.6,41.0,87,29.99,7.0,NNE,8.1,-,0.01,Rain,Light Rain,20,2012-10-08 18:35:00
12:53 PM,44.1,41.0,89,30.04,8.0,NNE,4.6,-,0.01,,Overcast,20,2012-10-08 18:53:00
1:49 PM,44.6,39.2,81,29.98,9.0,North,4.6,-,0.00,Rain,Light Rain,10,2012-10-08 19:49:00
1:50 PM,44.1,41.0,89,30.02,9.0,North,4.6,-,0.00,Rain,Light Rain,360,2012-10-08 19:50:00
1:58 PM,44.6,41.0,87,29.98,8.0,North,4.6,-,0.00,Rain,Light Rain,360,2012-10-08 19:58:00
2:10 PM,44.6,39.2,81,29.98,10.0,North,5.8,-,0.01,Rain,Light Rain,10,2012-10-08 20:10:00
2:53 PM,43.0,41.0,93,30.03,6.0,North,8.1,-,0.01,Rain,Light Rain,10,2012-10-08 20:53:00
3:53 PM,42.1,39.0,89,30.04,3.0,NNE,10.4,-,0.02,Rain,Light Rain,30,2012-10-08 21:53:00
4:08 PM,42.8,39.2,87,29.99,4.0,NNE,9.2,-,0.01,Rain,Light Rain,30,2012-10-08 22:08:00
4:43 PM,41.0,37.4,87,30.00,4.0,NNE,10.4,-,0.02,Rain,Light Rain,20,2012-10-08 22:43:00
4:53 PM,41.0,39.0,93,30.06,4.0,NNE,13.8,18.4,0.03,Rain,Light Rain,30,2012-10-08 22:53:00
5:07 PM,39.2,37.4,93,30.01,4.0,NNE,11.5,-,0.01,Rain,Light Rain,20,2012-10-08 23:07:00
5:53 PM,39.0,36.0,89,30.09,3.0,NNE,13.8,21.9,0.06,Rain,Light Rain,20,2012-10-08 23:53:00
6:25 PM,39.2,35.6,87,30.05,5.0,NNE,11.5,-,0.03,Rain,Light Rain,30,2012-10-09 00:25:00
6:35 PM,39.2,35.6,87,30.05,5.0,NE,9.2,-,0.04,Rain,Light Rain,40,2012-10-09 00:35:00
6:53 PM,37.9,36.0,93,30.13,8.0,NE,9.2,-,0.04,Rain,Light Rain,40,2012-10-09 00:53:00
7:26 PM,37.4,35.6,93,30.08,7.0,NNE,6.9,-,0.03,Rain,Light Rain,20,2012-10-09 01:26:00
7:53 PM,37.9,35.1,89,30.15,8.0,NNW,9.2,-,0.05,Rain,Light Rain,340,2012-10-09 01:53:00
8:13 PM,37.4,35.6,93,30.09,9.0,NNW,9.2,-,0.01,Rain,Light Rain,340,2012-10-09 02:13:00
8:28 PM,37.4,35.6,93,30.09,9.0,NW,8.1,-,0.02,Rain,Light Rain,320,2012-10-09 02:28:00
8:38 PM,37.4,35.6,93,30.10,10.0,NW,8.1,-,0.02,Rain,Light Rain,320,2012-10-09 02:38:00
8:45 PM,37.4,35.6,93,30.10,10.0,NW,8.1,-,0.02,Rain,Light Rain,320,2012-10-09 02:45:00
8:53 PM,37.9,35.1,89,30.17,10.0,NW,8.1,-,0.02,Rain,Light Rain,310,2012-10-09 02:53:00
9:20 PM,37.4,35.6,93,30.10,10.0,NW,4.6,-,N/A,Rain,Light Rain,310,2012-10-09 03:20:00
9:53 PM,37.9,35.1,89,30.18,10.0,WNW,5.8,-,0.01,Rain,Light Rain,290,2012-10-09 03:53:00
10:53 PM,37.4,33.8,87,30.11,10.0,West,5.8,-,N/A,,Overcast,260,2012-10-09 04:53:00
11:53 PM,37.0,35.1,93,30.18,10.0,SW,8.1,-,N/A,,Overcast,220,2012-10-09 05:53:00